OBJECT D, 60457

Orbit data source: Space-Track

You're viewing an Uncataloged Satellite

Recently launched and/or uncataloged satellites may have evolving metadata. Metadata may include but not limited to: Owner, Maufacturer, Bus, Motor, and Mission.

OBJECT D, 60457 is a satellite owned by ISRO (IN) in LEO that was launched on Fri, 16 Aug 2024 UTC launched from the Sirharikota (SRI). Unknown objects in Earth's orbit typically refer to objects detected orbiting the Earth but have not yet been identified or cataloged. These objects could be anything from previously untracked satellites, spent rocket stages, debris from satellite collisions, or even natural meteoroids temporarily captured by Earth's gravity.

Loading next visibility...
Identifier
60457, 2024-147D
Orbit
LEO
Last TLE update
22 hours ago
Origin
Manufacturer
ISRO
Mission
Spacecraft
Bus & Motor
VTM, Unknown motor
Mass
~200 kg wet, ~200 kg dry
Launch date (UTC)
2024-08-16 (11 months ago)
Launch vehicle
Unknown
Launch site
Sirharikota (SRI)
Object type
Unknown
Shape & HBR
Cyl, 2 m
Radar Cross Section
2.356 m², Large (>1 m²)

Expand to show TLE details & history

TLE from 22 hours ago
0 OBJECT D
1 60457U 24147D   25186.02566800  .00041649  00000-0  40694-3 0  9999
2 60457  37.3604  47.7369 0017319 260.3081  99.5732 15.64997520 50114
Epoch: 2025-07-05T00:36Z
TLE epoch observation values (Epoch: 2025-07-05T00:36:57.715Z)
Latitude
-0.00005°
Longitude
115.22673°
Altitude
374.352 km
Speed
7.686 km/s
True Right ascension
03h 10m 56s
True Declination
0° 00' 00"
Sunlit
Object was in daylight at epoch
Visualization orbit readout
Latitude
26.60265°
Longitude
-111.44916°
Altitude
380.791 km
Speed
7.681 km/s
Apparent Right ascension
15h 28m 34s
Apparent Declination
-23° 33' 11"
Sunlit
Object is in daylight
Visualization observer readout
Local Sidereal Time
10:33:14
Azimuth
118.109° SE
Elevation
-3.476°
Doppler factor
1
Orbital elements
Apogee altitude
387.869 km
Perigee altitude
364.473 km
Semi-major axis
6,754.308 km
Eccentricity
0.00173
Inclination
37.3604°
RAAN
47.7369°
Arg. of periapsis
260.3081°
True anomaly
Unknown
Mean anomaly
99.5732°
Eccentric anomaly
Unknown
Mean motion
3.90996 °/min
Orbital period
92.07 mins
BSTAR
0.00040694
Loading maneuver chart data...
Loading SW <> Apogee altitude chart data...
Loading historical data...
Loading historical data...
Loading historical data...
Loading historical data...
Loading historical data...
Loading historical data...
Loading historical data...
Other satellites on launch #147 in the year 2024 (2024-08-16 UTC)

OBJECT D Visibility forecast

Observer location: undefined°, undefined°

Span
Click to sort rows by Start time (UTC) header in descending order
Start Az.
Max El. time (UTC)
Max El. Az.
Max El.
End time (UTC)
End Az.
4 mins2025-07-06 18:12:01.291Z205.748° SW2025-07-06 18:14:01.291Z157.018° SSE20.871°2025-07-06 18:16:01.291Z110.977° ESE
4 mins2025-07-06 19:49:01.291Z237.659° WSW2025-07-06 19:50:01.291Z207.294° SW34.573°2025-07-06 19:53:01.291Z101.376° ESE
4 mins2025-07-06 21:26:01.291Z240.786° WSW2025-07-06 21:27:01.291Z199.927° SSW33.258°2025-07-06 21:30:01.291Z119.083° SE
|